START_TIME,STEP,MOV.,M6,t_acc.,M7,t_acc.,M19,t_acc.,H36,t_acc.
1979-07-05 18:00:27.820 ,0,1,0.,12.0,0.,12.0,0.,12.0,0.,12.0
1979-07-05 18:00:39.820 ,0,1,0.,12.0,0.,12.0,0.,12.0,0.,12.0
1979-07-05 18:00:51.820 ,3,1,1.,12.0,0.,12.0,0.,12.0,0.,12.0
1979-07-05 18:01:03.820 ,3,1,0.,12.0,0.,12.0,0.,12.0,0.,12.0
1979-07-05 18:01:15.820 ,7,1,0.,12.0,0.,12.0,0.,12.0,0.,12.0
1979-07-05 18:01:27.820 ,7,1,0.,12.0,0.,12.0,0.,12.0,0.,12.0
1979-07-05 18:01:39.820 ,4,1,0.,12.0,0.,12.0,0.,12.0,0.,12.0
1979-07-05 18:01:51.820 ,4,1,0.,12.0,0.,12.0,0.,12.0,0.,12.0
1979-07-05 18:02:03.820 ,0,1,0.,12.0,0.,12.0,0.,12.0,0.,12.0
1979-07-05 18:02:15.820 ,0,1,0.,12.0,0.,12.0,0.,12.0,0.,12.0
1979-07-05 18:02:27.820 ,3,1,0.,12.0,0.,12.0,0.,12.0,0.,12.0
1979-07-05 18:02:39.820 ,3,1,0.,12.0,0.,12.0,0.,12.0,0.,12.0
1979-07-05 18:02:51.820 ,7,1,0.,12.0,0.,12.0,0.,12.0,0.,12.0
1979-07-05 18:03:03.820 ,7,1,0.,12.0,0.,12.0,0.,12.0,0.,12.0
1979-07-05 18:03:15.820 ,4,1,0.,12.0,0.,12.0,0.,12.0,0.,12.0
1979-07-05 18:03:27.820 ,4,1,0.,12.0,0.,12.0,0.,12.0,0.,12.0
1979-07-05 18:03:39.820 ,0,1,0.,12.0,0.,12.0,0.,12.0,0.,12.0
1979-07-05 18:03:51.820 ,0,1,0.,12.0,0.,12.0,0.,12.0,0.,12.0
1979-07-05 18:04:03.820 ,3,1,0.,12.0,0.,12.0,0.,12.0,0.,12.0
1979-07-05 18:04:15.820 ,3,1,0.,12.0,0.,12.0,0.,12.0,0.,12.0
1979-07-05 18:04:27.820 ,7,1,0.,12.0,0.,12.0,0.,12.0,0.,12.0
1979-07-05 18:04:39.820 ,7,1,0.,12.0,0.,12.0,0.,12.0,0.,12.0
1979-07-05 18:04:51.820 ,4,1,0.,12.0,0.,12.0,0.,12.0,0.,12.0
1979-07-05 18:05:03.820 ,4,1,0.,12.0,0.,12.0,0.,12.0,0.,12.0
1979-07-05 18:05:15.820 ,0,1,0.,12.0,0.,12.0,0.,12.0,0.,12.0
1979-07-05 18:05:27.820 ,0,1,0.,12.0,0.,12.0,0.,12.0,0.,12.0
1979-07-05 18:05:39.820 ,0,0,0.,12.0,0.,12.0,0.,12.0,0.,12.0
1979-07-05 18:05:51.820 ,0,0,0.,12.0,0.,12.0,0.,12.0,0.,12.0
1979-07-05 18:06:03.820 ,0,0,0.,12.0,0.,12.0,0.,12.0,0.,12.0
1979-07-05 18:06:15.820 ,0,0,0.,12.0,0.,12.0,0.,12.0,0.,12.0
1979-07-05 18:06:27.820 ,5,1,0.,12.0,0.,12.0,0.,12.0,0.,12.0
1979-07-05 18:06:39.820 ,5,1,0.,12.0,0.,12.0,0.,12.0,0.,12.0
1979-07-05 18:06:51.820 ,5,0,0.,12.0,0.,12.0,0.,12.0,0.,12.0
1979-07-05 18:07:03.820 ,5,0,0.,12.0,0.,12.0,0.,12.0,0.,12.0
1979-07-05 18:07:15.820 ,4,1,0.,12.0,0.,12.0,0.,12.0,0.,12.0
1979-07-05 18:07:27.820 ,4,1,0.,12.0,0.,12.0,0.,12.0,0.,12.0
1979-07-05 18:07:39.820 ,4,0,0.,12.0,0.,12.0,0.,12.0,0.,12.0
1979-07-05 18:07:51.820 ,4,0,0.,12.0,0.,12.0,0.,12.0,0.,12.0
1979-07-05 18:08:03.820 ,3,1,0.,12.0,0.,12.0,0.,12.0,0.,12.0
1979-07-05 18:08:15.820 ,3,1,0.,12.0,0.,12.0,0.,12.0,0.,12.0
1979-07-05 18:08:27.820 ,3,0,0.,12.0,0.,12.0,0.,12.0,0.,12.0
1979-07-05 18:08:39.820 ,3,0,0.,12.0,0.,12.0,0.,12.0,0.,12.0
1979-07-05 18:08:51.820 ,2,1,0.,12.0,0.,12.0,0.,12.0,0.,12.0
1979-07-05 18:09:03.820 ,2,1,0.,12.0,0.,12.0,0.,12.0,0.,12.0
1979-07-05 18:09:15.820 ,2,0,0.,12.0,0.,12.0,0.,12.0,0.,12.0
1979-07-05 18:09:27.820 ,2,0,0.,12.0,0.,12.0,0.,12.0,0.,12.0
1979-07-05 18:09:39.820 ,1,1,0.,12.0,0.,12.0,0.,12.0,0.,12.0
1979-07-05 18:09:51.820 ,1,1,0.,12.0,0.,12.0,0.,12.0,0.,12.0
1979-07-05 18:10:03.820 ,1,0,0.,12.0,0.,12.0,0.,12.0,0.,12.0
1979-07-05 18:10:15.820 ,1,0,0.,12.0,0.,12.0,0.,12.0,0.,12.0
1979-07-05 18:10:27.820 ,0,1,0.,12.0,0.,12.0,0.,12.0,0.,12.0
1979-07-05 18:10:39.820 ,0,1,0.,12.0,0.,12.0,0.,12.0,0.,12.0
1979-07-05 18:10:51.820 ,0,0,0.,12.0,0.,12.0,0.,12.0,0.,12.0
1979-07-05 18:11:03.820 ,0,0,0.,12.0,0.,12.0,0.,12.0,0.,12.0
1979-07-05 18:11:15.820 ,0,1,0.,12.0,0.,12.0,0.,12.0,0.,12.0
1979-07-05 18:11:27.820 ,0,1,0.,12.0,0.,12.0,0.,12.0,0.,12.0
1979-07-05 18:11:39.820 ,0,0,0.,12.0,0.,12.0,0.,12.0,0.,12.0
1979-07-05 18:11:51.820 ,0,0,0.,12.0,0.,12.0,0.,12.0,0.,12.0
1979-07-05 18:12:03.820 ,1,1,0.,12.0,0.,12.0,0.,12.0,0.,12.0
1979-07-05 18:12:15.820 ,1,1,0.,12.0,0.,12.0,0.,12.0,0.,12.0
1979-07-05 18:12:27.820 ,1,0,0.,12.0,0.,12.0,0.,12.0,0.,12.0
1979-07-05 18:12:39.820 ,1,0,0.,12.0,0.,12.0,0.,12.0,0.,12.0
1979-07-05 18:12:51.820 ,2,1,0.,12.0,0.,12.0,0.,12.0,0.,12.0
1979-07-05 18:13:03.820 ,2,1,0.,12.0,0.,12.0,0.,12.0,0.,12.0
1979-07-05 18:13:15.820 ,2,0,0.,12.0,0.,12.0,0.,12.0,0.,12.0
1979-07-05 18:13:27.820 ,2,0,0.,12.0,0.,12.0,0.,12.0,0.,12.0
1979-07-05 18:13:39.820 ,3,1,0.,12.0,0.,12.0,0.,12.0,0.,12.0
1979-07-05 18:13:51.820 ,3,1,0.,12.0,0.,12.0,0.,12.0,0.,12.0
1979-07-05 18:14:03.820 ,3,0,0.,12.0,0.,12.0,0.,12.0,0.,12.0
1979-07-05 18:14:15.820 ,3,0,0.,12.0,0.,12.0,0.,12.0,0.,12.0
1979-07-05 18:14:27.820 ,4,1,0.,12.0,0.,12.0,0.,12.0,0.,12.0
1979-07-05 18:14:39.820 ,4,1,0.,12.0,0.,12.0,0.,12.0,0.,12.0
1979-07-05 18:14:51.820 ,4,0,0.,12.0,0.,12.0,0.,12.0,0.,12.0
1979-07-05 18:15:03.820 ,4,0,0.,12.0,0.,12.0,0.,12.0,0.,12.0
1979-07-05 18:15:15.820 ,5,1,0.,12.0,0.,12.0,0.,12.0,0.,12.0
1979-07-05 18:15:27.820 ,5,1,0.,12.0,0.,12.0,0.,12.0,0.,12.0
1979-07-05 18:15:39.820 ,5,0,0.,12.0,0.,12.0,0.,12.0,0.,12.0
1979-07-05 18:15:51.820 ,5,0,0.,12.0,0.,12.0,0.,12.0,0.,12.0
1979-07-05 18:16:03.820 ,6,1,0.,12.0,0.,12.0,0.,12.0,0.,12.0
1979-07-05 18:16:15.820 ,6,1,0.,12.0,0.,12.0,0.,12.0,0.,12.0
1979-07-05 18:16:27.820 ,6,0,0.,12.0,0.,12.0,0.,12.0,0.,12.0
1979-07-05 18:16:39.820 ,6,0,0.,12.0,0.,12.0,0.,12.0,0.,12.0
1979-07-05 18:16:51.820 ,7,1,0.,12.0,0.,12.0,0.,12.0,0.,12.0
1979-07-05 18:17:03.820 ,7,1,0.,12.0,0.,12.0,0.,12.0,0.,12.0
1979-07-05 18:17:15.820 ,7,0,0.,12.0,0.,12.0,0.,12.0,0.,12.0
1979-07-05 18:17:27.820 ,7,0,0.,12.0,0.,12.0,0.,12.0,0.,12.0
1979-07-05 18:17:39.820 ,7,1,0.,12.0,0.,12.0,0.,12.0,0.,12.0
1979-07-05 18:17:51.820 ,7,1,0.,12.0,0.,12.0,0.,12.0,0.,12.0
1979-07-05 18:18:03.820 ,7,0,0.,12.0,0.,12.0,0.,12.0,0.,12.0
1979-07-05 18:18:15.820 ,7,0,0.,12.0,0.,12.0,0.,12.0,0.,12.0
1979-07-05 18:18:27.820 ,6,1,0.,12.0,0.,12.0,0.,12.0,0.,12.0
1979-07-05 18:18:39.820 ,6,1,0.,12.0,0.,12.0,0.,12.0,0.,12.0
1979-07-05 18:18:51.820 ,6,0,0.,12.0,0.,12.0,0.,12.0,0.,12.0
1979-07-05 18:19:03.820 ,6,0,0.,12.0,0.,12.0,0.,12.0,0.,12.0
1979-07-05 18:19:15.820 ,5,1,0.,12.0,0.,12.0,0.,12.0,0.,12.0
1979-07-05 18:19:27.820 ,5,1,0.,12.0,0.,12.0,0.,12.0,0.,12.0
1979-07-05 18:19:39.820 ,5,0,0.,12.0,0.,12.0,0.,12.0,0.,12.0
1979-07-05 18:19:51.820 ,5,0,0.,12.0,0.,12.0,0.,12.0,0.,12.0
1979-07-05 18:20:03.820 ,4,1,0.,12.0,0.,12.0,0.,12.0,0.,12.0
1979-07-05 18:20:15.820 ,4,1,0.,12.0,0.,12.0,0.,12.0,0.,12.0
1979-07-05 18:20:27.820 ,4,0,0.,12.0,0.,12.0,0.,12.0,0.,12.0
1979-07-05 18:20:39.820 ,4,0,0.,12.0,0.,12.0,0.,12.0,0.,12.0
1979-07-05 18:20:51.820 ,3,1,0.,12.0,0.,12.0,0.,12.0,0.,12.0
1979-07-05 18:21:03.820 ,3,1,0.,12.0,0.,12.0,0.,12.0,0.,12.0
1979-07-05 18:21:15.820 ,3,0,0.,12.0,0.,12.0,0.,12.0,0.,12.0
1979-07-05 18:21:27.820 ,3,0,0.,12.0,0.,12.0,0.,12.0,0.,12.0
1979-07-05 18:21:39.820 ,2,1,0.,12.0,0.,12.0,0.,12.0,0.,12.0
1979-07-05 18:21:51.820 ,2,1,0.,12.0,0.,12.0,0.,12.0,0.,12.0
1979-07-05 18:22:03.820 ,2,0,0.,12.0,0.,12.0,0.,12.0,0.,12.0
1979-07-05 18:22:15.820 ,2,0,0.,12.0,0.,12.0,0.,12.0,0.,12.0
1979-07-05 18:22:27.820 ,1,1,0.,12.0,0.,12.0,0.,12.0,0.,12.0
1979-07-05 18:22:39.820 ,1,1,0.,12.0,0.,12.0,0.,12.0,0.,12.0
1979-07-05 18:22:51.820 ,1,0,0.,12.0,0.,12.0,0.,12.0,0.,12.0
1979-07-05 18:23:03.820 ,1,0,0.,12.0,0.,12.0,0.,12.0,0.,12.0
1979-07-05 18:23:15.820 ,0,1,0.,12.0,0.,12.0,0.,12.0,0.,12.0
1979-07-05 18:23:27.820 ,0,1,0.,12.0,0.,12.0,0.,12.0,0.,12.0
1979-07-05 18:23:39.820 ,0,0,0.,12.0,0.,12.0,0.,12.0,0.,12.0
1979-07-05 18:23:51.820 ,0,0,0.,12.0,0.,12.0,0.,12.0,0.,12.0
1979-07-05 18:24:03.820 ,0,1,0.,12.0,0.,12.0,0.,12.0,0.,12.0
1979-07-05 18:24:15.820 ,0,1,1.,12.0,0.,12.0,0.,12.0,0.,12.0
1979-07-05 18:24:27.820 ,0,0,0.,12.0,0.,12.0,0.,12.0,0.,12.0
1979-07-05 18:24:39.820 ,0,0,0.,12.0,0.,12.0,0.,12.0,0.,12.0
1979-07-05 18:24:51.820 ,1,1,0.,12.0,0.,12.0,0.,12.0,0.,12.0
1979-07-05 18:25:03.820 ,1,1,0.,12.0,0.,12.0,0.,12.0,0.,12.0
1979-07-05 18:25:15.820 ,1,0,0.,12.0,0.,12.0,0.,12.0,0.,12.0
1979-07-05 18:25:27.820 ,1,0,0.,12.0,0.,12.0,0.,12.0,0.,12.0
1979-07-05 18:25:39.820 ,2,1,0.,12.0,0.,12.0,0.,12.0,0.,12.0
1979-07-05 18:25:51.820 ,2,1,0.,12.0,0.,12.0,0.,12.0,0.,12.0
1979-07-05 18:26:03.820 ,2,0,0.,12.0,0.,12.0,0.,12.0,0.,12.0
1979-07-05 18:26:15.820 ,2,0,0.,12.0,0.,12.0,0.,12.0,0.,12.0
1979-07-05 18:26:27.820 ,3,1,0.,12.0,0.,12.0,0.,12.0,0.,12.0
1979-07-05 18:26:39.820 ,3,1,0.,12.0,0.,12.0,0.,12.0,0.,12.0
1979-07-05 18:26:51.820 ,3,0,0.,12.0,0.,12.0,0.,12.0,0.,12.0
1979-07-05 18:27:03.820 ,3,0,0.,12.0,0.,12.0,0.,12.0,0.,12.0
1979-07-05 18:27:15.820 ,4,1,0.,12.0,0.,12.0,0.,12.0,0.,12.0
1979-07-05 18:27:27.820 ,4,1,0.,12.0,0.,12.0,0.,12.0,0.,12.0
1979-07-05 18:27:39.820 ,4,0,0.,12.0,0.,12.0,0.,12.0,0.,12.0
1979-07-05 18:27:51.820 ,4,0,0.,12.0,0.,12.0,0.,12.0,0.,12.0
1979-07-05 18:28:03.820 ,5,1,0.,12.0,0.,12.0,0.,12.0,0.,12.0
1979-07-05 18:28:15.820 ,5,1,0.,12.0,0.,12.0,0.,12.0,0.,12.0
1979-07-05 18:28:27.820 ,5,0,0.,12.0,0.,12.0,0.,12.0,0.,12.0
1979-07-05 18:28:39.820 ,5,0,0.,12.0,0.,12.0,0.,12.0,0.,12.0
1979-07-05 18:28:51.820 ,6,1,0.,12.0,0.,12.0,0.,12.0,0.,12.0
1979-07-05 18:29:03.820 ,6,1,0.,12.0,0.,12.0,0.,12.0,0.,12.0
1979-07-05 18:29:15.820 ,6,0,0.,12.0,0.,12.0,0.,12.0,0.,12.0
1979-07-05 18:29:27.820 ,6,0,0.,12.0,0.,12.0,0.,12.0,0.,12.0
1979-07-05 18:29:39.820 ,7,1,0.,12.0,0.,12.0,0.,12.0,0.,12.0
1979-07-05 18:29:51.820 ,7,1,0.,12.0,0.,12.0,0.,12.0,0.,12.0
1979-07-05 18:30:03.820 ,7,0,0.,12.0,0.,12.0,0.,12.0,0.,12.0
1979-07-05 18:30:15.820 ,7,0,0.,12.0,0.,12.0,0.,12.0,0.,12.0
1979-07-05 18:30:27.820 ,7,1,0.,12.0,0.,12.0,0.,12.0,0.,12.0
1979-07-05 18:30:39.820 ,7,1,0.,12.0,0.,12.0,0.,12.0,0.,12.0
1979-07-05 18:30:51.820 ,7,0,0.,12.0,0.,12.0,0.,12.0,0.,12.0
1979-07-05 18:31:03.820 ,7,0,0.,12.0,0.,12.0,0.,12.0,0.,12.0
1979-07-05 18:31:15.820 ,6,1,0.,12.0,0.,12.0,0.,12.0,0.,12.0
1979-07-05 18:31:27.820 ,6,1,0.,12.0,0.,12.0,0.,12.0,0.,12.0
1979-07-05 18:31:39.820 ,6,0,0.,12.0,0.,12.0,0.,12.0,0.,12.0
1979-07-05 18:31:51.820 ,6,0,0.,12.0,0.,12.0,0.,12.0,0.,12.0
1979-07-05 18:32:03.820 ,5,1,0.,12.0,0.,12.0,0.,12.0,0.,12.0
1979-07-05 18:32:15.820 ,5,1,0.,12.0,0.,12.0,0.,12.0,0.,12.0
1979-07-05 18:32:27.820 ,5,0,0.,12.0,0.,12.0,0.,12.0,0.,12.0
1979-07-05 18:32:39.820 ,5,0,0.,12.0,0.,12.0,0.,12.0,0.,12.0
1979-07-05 18:32:51.820 ,4,1,0.,12.0,0.,12.0,0.,12.0,0.,12.0
1979-07-05 18:33:03.820 ,4,1,0.,12.0,0.,12.0,0.,12.0,0.,12.0
1979-07-05 18:33:15.820 ,4,0,0.,12.0,0.,12.0,0.,12.0,0.,12.0
1979-07-05 18:33:27.820 ,4,0,0.,12.0,0.,12.0,0.,12.0,0.,12.0
1979-07-05 18:33:39.820 ,3,1,0.,12.0,0.,12.0,0.,12.0,0.,12.0
1979-07-05 18:33:51.820 ,3,1,0.,12.0,0.,12.0,0.,12.0,0.,12.0
1979-07-05 18:34:03.820 ,3,0,0.,12.0,0.,12.0,0.,12.0,0.,12.0
1979-07-05 18:34:15.820 ,3,0,0.,12.0,0.,12.0,0.,12.0,0.,12.0
1979-07-05 18:34:27.820 ,2,1,0.,12.0,0.,12.0,0.,12.0,0.,12.0
1979-07-05 18:34:39.820 ,2,1,0.,12.0,0.,12.0,0.,12.0,0.,12.0
1979-07-05 18:34:51.820 ,2,0,0.,12.0,0.,12.0,0.,12.0,0.,12.0
1979-07-05 18:35:03.820 ,2,0,0.,12.0,0.,12.0,0.,12.0,0.,12.0
1979-07-05 18:35:15.820 ,1,1,0.,12.0,0.,12.0,0.,12.0,0.,12.0
1979-07-05 18:35:27.820 ,1,1,0.,12.0,0.,12.0,0.,12.0,0.,12.0
1979-07-05 18:35:39.820 ,1,0,0.,12.0,0.,12.0,0.,12.0,0.,12.0
1979-07-05 18:35:51.820 ,1,0,0.,12.0,0.,12.0,0.,12.0,0.,12.0
1979-07-05 18:36:03.820 ,0,1,0.,12.0,0.,12.0,0.,12.0,0.,12.0
1979-07-05 18:36:15.820 ,0,1,0.,12.0,0.,12.0,0.,12.0,0.,12.0
1979-07-05 18:36:27.820 ,0,0,0.,12.0,0.,12.0,0.,12.0,0.,12.0
1979-07-05 18:36:39.820 ,0,0,0.,12.0,0.,12.0,0.,12.0,0.,12.0
1979-07-05 18:36:51.820 ,0,1,0.,12.0,0.,12.0,0.,12.0,0.,12.0
1979-07-05 18:37:03.820 ,0,1,0.,12.0,0.,12.0,0.,12.0,0.,12.0
1979-07-05 18:37:15.820 ,0,0,0.,12.0,0.,12.0,0.,12.0,0.,12.0
1979-07-05 18:37:27.820 ,0,0,0.,12.0,0.,12.0,0.,12.0,0.,12.0
1979-07-05 18:37:39.820 ,1,1,0.,12.0,0.,12.0,0.,12.0,0.,12.0
1979-07-05 18:37:51.820 ,1,1,0.,12.0,0.,12.0,0.,12.0,0.,12.0
1979-07-05 18:38:03.820 ,1,0,0.,12.0,0.,12.0,0.,12.0,0.,12.0
1979-07-05 18:38:15.820 ,1,0,0.,12.0,0.,12.0,0.,12.0,0.,12.0
1979-07-05 18:38:27.820 ,2,1,0.,12.0,0.,12.0,0.,12.0,0.,12.0
1979-07-05 18:38:39.820 ,2,1,0.,12.0,0.,12.0,0.,12.0,0.,12.0
1979-07-05 18:38:51.820 ,2,0,0.,12.0,0.,12.0,0.,12.0,0.,12.0
1979-07-05 18:39:03.820 ,2,0,0.,12.0,0.,12.0,0.,12.0,0.,12.0
1979-07-05 18:39:15.820 ,3,1,0.,12.0,0.,12.0,0.,12.0,0.,12.0
1979-07-05 18:39:27.820 ,3,1,0.,12.0,0.,12.0,0.,12.0,0.,12.0
1979-07-05 18:39:39.820 ,3,0,0.,12.0,0.,12.0,0.,12.0,0.,12.0
1979-07-05 18:39:51.820 ,3,0,0.,12.0,0.,12.0,0.,12.0,0.,12.0
1979-07-05 18:40:03.820 ,4,1,0.,12.0,0.,12.0,0.,12.0,0.,12.0
1979-07-05 18:40:15.820 ,4,1,0.,12.0,0.,12.0,0.,12.0,0.,12.0
1979-07-05 18:40:27.820 ,4,0,0.,12.0,0.,12.0,0.,12.0,0.,12.0
1979-07-05 18:40:39.820 ,4,0,0.,12.0,0.,12.0,0.,12.0,0.,12.0
1979-07-05 18:40:51.820 ,5,1,0.,12.0,0.,12.0,0.,12.0,0.,12.0
1979-07-05 18:41:03.820 ,5,1,0.,12.0,0.,12.0,0.,12.0,0.,12.0
1979-07-05 18:41:15.820 ,5,0,0.,12.0,0.,12.0,0.,12.0,0.,12.0
1979-07-05 18:41:27.820 ,5,0,0.,12.0,0.,12.0,0.,12.0,0.,12.0
1979-07-05 18:41:39.820 ,6,1,0.,12.0,0.,12.0,0.,12.0,0.,12.0
1979-07-05 18:41:51.820 ,6,1,0.,12.0,0.,12.0,0.,12.0,0.,12.0
1979-07-05 18:42:03.820 ,6,0,0.,12.0,0.,12.0,0.,12.0,0.,12.0
1979-07-05 18:42:15.820 ,6,0,0.,12.0,0.,12.0,0.,12.0,0.,12.0
1979-07-05 18:42:27.820 ,7,0,0.,12.0,0.,12.0,0.,12.0,0.,12.0
1979-07-05 18:42:39.820 ,7,0,0.,12.0,0.,12.0,0.,12.0,0.,12.0
1979-07-05 18:42:51.820 ,7,0,0.,12.0,0.,12.0,0.,12.0,0.,12.0
1979-07-05 18:43:03.820 ,7,0,0.,12.0,0.,12.0,0.,12.0,0.,12.0
1979-07-05 18:43:15.820 ,4,1,0.,12.0,0.,12.0,0.,12.0,0.,12.0
1979-07-05 18:43:27.820 ,4,1,1.,12.0,0.,12.0,0.,12.0,0.,12.0
1979-07-05 18:43:39.820 ,0,1,0.,12.0,0.,12.0,0.,12.0,0.,12.0
1979-07-05 18:43:51.820 ,0,1,0.,12.0,0.,12.0,0.,12.0,0.,12.0
1979-07-05 18:44:03.820 ,3,1,0.,12.0,0.,12.0,0.,12.0,0.,12.0
1979-07-05 18:44:15.820 ,3,1,0.,12.0,0.,12.0,0.,12.0,0.,12.0
1979-07-05 18:44:27.820 ,7,1,0.,12.0,0.,12.0,0.,12.0,0.,12.0
1979-07-05 18:44:39.820 ,7,1,0.,12.0,0.,12.0,0.,12.0,0.,12.0
1979-07-05 18:44:51.820 ,4,1,0.,12.0,0.,12.0,0.,12.0,0.,12.0
1979-07-05 18:45:03.820 ,4,1,0.,12.0,0.,12.0,0.,12.0,0.,12.0
1979-07-05 18:45:15.820 ,0,1,0.,12.0,0.,12.0,0.,12.0,1.,12.0
1979-07-05 18:45:27.820 ,0,1,0.,12.0,0.,12.0,0.,12.0,0.,12.0
1979-07-05 18:45:39.820 ,3,1,0.,12.0,0.,12.0,0.,12.0,0.,12.0
1979-07-05 18:45:51.820 ,3,1,0.,12.0,0.,12.0,0.,12.0,0.,12.0
1979-07-05 18:46:03.820 ,7,1,0.,12.0,0.,12.0,0.,12.0,0.,12.0
1979-07-05 18:46:15.820 ,7,1,0.,12.0,0.,12.0,0.,12.0,0.,12.0
1979-07-05 18:46:27.820 ,4,1,0.,12.0,0.,12.0,0.,12.0,0.,12.0
1979-07-05 18:46:39.820 ,4,1,0.,12.0,0.,12.0,0.,12.0,0.,12.0
1979-07-05 18:46:51.820 ,0,1,0.,12.0,0.,12.0,0.,12.0,0.,12.0
1979-07-05 18:47:03.820 ,0,1,0.,12.0,0.,12.0,0.,12.0,0.,12.0
1979-07-05 18:47:15.820 ,3,1,0.,12.0,0.,12.0,0.,12.0,0.,12.0
1979-07-05 18:47:27.820 ,3,1,0.,12.0,0.,12.0,0.,12.0,1.,12.0
1979-07-05 18:47:39.820 ,7,1,0.,12.0,0.,12.0,0.,12.0,1.,12.0
1979-07-05 18:47:51.820 ,7,1,0.,12.0,0.,12.0,0.,12.0,0.,12.0
1979-07-05 18:48:03.820 ,4,1,0.,12.0,0.,12.0,0.,12.0,0.,12.0
1979-07-05 18:48:15.820 ,4,1,0.,12.0,0.,12.0,0.,12.0,0.,12.0
1979-07-05 18:48:27.820 ,0,1,0.,12.0,0.,12.0,0.,12.0,0.,12.0
1979-07-05 18:48:39.820 ,0,1,0.,12.0,0.,12.0,0.,12.0,0.,12.0
1979-07-05 18:48:51.820 ,3,1,0.,12.0,0.,12.0,0.,12.0,0.,12.0
1979-07-05 18:49:03.820 ,3,1,0.,12.0,0.,12.0,0.,12.0,0.,12.0
1979-07-05 18:49:15.820 ,7,1,0.,12.0,0.,12.0,0.,12.0,0.,12.0
1979-07-05 18:49:27.820 ,7,1,0.,12.0,0.,12.0,0.,12.0,0.,12.0
1979-07-05 18:49:39.820 ,4,1,0.,12.0,0.,12.0,0.,12.0,0.,12.0
1979-07-05 18:49:51.820 ,4,1,0.,12.0,0.,12.0,0.,12.0,0.,12.0
1979-07-05 18:50:03.820 ,0,1,1.,12.0,0.,12.0,0.,12.0,0.,12.0
1979-07-05 18:50:15.820 ,0,1,0.,12.0,0.,12.0,0.,12.0,0.,12.0
1979-07-05 18:50:27.820 ,3,1,0.,12.0,0.,12.0,0.,12.0,0.,12.0
1979-07-05 18:50:39.820 ,3,1,0.,12.0,0.,12.0,0.,12.0,0.,12.0
1979-07-05 18:50:51.820 ,7,1,0.,12.0,0.,12.0,0.,12.0,0.,12.0
1979-07-05 18:51:03.820 ,7,1,0.,12.0,0.,12.0,0.,12.0,0.,12.0
1979-07-05 18:51:15.820 ,4,1,0.,12.0,0.,12.0,0.,12.0,0.,12.0
1979-07-05 18:51:27.820 ,4,1,0.,12.0,0.,12.0,0.,12.0,0.,12.0
1979-07-05 18:51:39.820 ,0,1,1.,12.0,0.,12.0,0.,12.0,0.,12.0
1979-07-05 18:51:51.820 ,0,1,0.,12.0,0.,12.0,0.,12.0,0.,12.0
1979-07-05 18:52:03.820 ,3,1,0.,12.0,0.,12.0,0.,12.0,0.,12.0
1979-07-05 18:52:15.820 ,3,1,0.,12.0,0.,12.0,0.,12.0,0.,12.0
1979-07-05 18:52:27.820 ,7,1,0.,12.0,0.,12.0,0.,12.0,0.,12.0
1979-07-05 18:52:39.820 ,7,1,0.,12.0,0.,12.0,0.,12.0,0.,12.0
1979-07-05 18:52:51.820 ,4,1,0.,12.0,0.,12.0,0.,12.0,0.,12.0
1979-07-05 18:53:03.820 ,4,1,0.,12.0,0.,12.0,0.,12.0,0.,12.0
1979-07-05 18:53:15.820 ,0,1,0.,12.0,0.,12.0,0.,12.0,1.,12.0
1979-07-05 18:53:27.820 ,0,1,0.,12.0,0.,12.0,0.,12.0,0.,12.0
1979-07-05 18:53:39.820 ,0,0,0.,12.0,0.,12.0,0.,12.0,0.,12.0
1979-07-05 18:53:51.820 ,0,0,1.,12.0,0.,12.0,0.,12.0,0.,12.0
1979-07-05 18:54:03.820 ,0,0,0.,12.0,0.,12.0,0.,12.0,0.,12.0
1979-07-05 18:54:15.820 ,0,0,0.,12.0,0.,12.0,0.,12.0,0.,12.0
1979-07-05 18:54:27.820 ,5,1,0.,12.0,0.,12.0,0.,12.0,0.,12.0
1979-07-05 18:54:39.820 ,5,1,0.,12.0,0.,12.0,0.,12.0,0.,12.0
1979-07-05 18:54:51.820 ,5,0,0.,12.0,0.,12.0,0.,12.0,0.,12.0
1979-07-05 18:55:03.820 ,5,0,0.,12.0,0.,12.0,0.,12.0,0.,12.0
1979-07-05 18:55:15.820 ,4,1,0.,12.0,0.,12.0,0.,12.0,0.,12.0
1979-07-05 18:55:27.820 ,4,1,0.,12.0,0.,12.0,0.,12.0,0.,12.0
1979-07-05 18:55:39.820 ,4,0,0.,12.0,0.,12.0,0.,12.0,0.,12.0
1979-07-05 18:55:51.820 ,4,0,1.,12.0,0.,12.0,0.,12.0,0.,12.0
1979-07-05 18:56:03.820 ,3,1,0.,12.0,0.,12.0,0.,12.0,0.,12.0
1979-07-05 18:56:15.820 ,3,1,0.,12.0,0.,12.0,0.,12.0,0.,12.0
1979-07-05 18:56:27.820 ,3,0,0.,12.0,0.,12.0,0.,12.0,0.,12.0
1979-07-05 18:56:39.820 ,3,0,0.,12.0,0.,12.0,0.,12.0,2.,12.0
1979-07-05 18:56:51.820 ,2,1,0.,12.0,0.,12.0,0.,12.0,0.,12.0
1979-07-05 18:57:03.820 ,2,1,0.,12.0,0.,12.0,0.,12.0,0.,12.0
1979-07-05 18:57:15.820 ,2,0,0.,12.0,0.,12.0,0.,12.0,0.,12.0
1979-07-05 18:57:27.820 ,2,0,0.,12.0,0.,12.0,0.,12.0,1.,12.0
1979-07-05 18:57:39.820 ,1,1,1.,12.0,0.,12.0,0.,12.0,0.,12.0
1979-07-05 18:57:51.820 ,1,1,0.,12.0,0.,12.0,0.,12.0,0.,12.0
1979-07-05 18:58:03.820 ,1,0,0.,12.0,0.,12.0,0.,12.0,0.,12.0
1979-07-05 18:58:15.820 ,1,0,0.,12.0,0.,12.0,0.,12.0,0.,12.0
1979-07-05 18:58:27.820 ,0,1,0.,12.0,0.,12.0,0.,12.0,0.,12.0
1979-07-05 18:58:39.820 ,0,1,0.,12.0,0.,12.0,0.,12.0,0.,12.0
1979-07-05 18:58:51.820 ,0,0,0.,12.0,0.,12.0,0.,12.0,0.,12.0
1979-07-05 18:59:03.820 ,0,0,0.,12.0,0.,12.0,0.,12.0,0.,12.0
1979-07-05 18:59:15.820 ,0,1,0.,12.0,0.,12.0,0.,12.0,0.,12.0
1979-07-05 18:59:27.820 ,0,1,0.,12.0,0.,12.0,0.,12.0,0.,12.0
1979-07-05 18:59:39.820 ,0,0,0.,12.0,0.,12.0,0.,12.0,0.,12.0
1979-07-05 18:59:51.820 ,0,0,0.,12.0,0.,12.0,0.,12.0,0.,12.0
1979-07-05 19:00:03.820 ,1,1,0.,12.0,0.,12.0,0.,12.0,0.,12.0
1979-07-05 19:00:15.820 ,1,1,0.,12.0,0.,12.0,0.,12.0,0.,12.0
1979-07-05 19:00:27.820 ,1,0,0.,12.0,0.,12.0,0.,12.0,0.,12.0
1979-07-05 19:00:39.820 ,1,0,0.,12.0,0.,12.0,0.,12.0,0.,12.0
1979-07-05 19:00:51.820 ,2,1,0.,12.0,0.,12.0,0.,12.0,0.,12.0
1979-07-05 19:01:03.820 ,2,1,0.,12.0,0.,12.0,0.,12.0,0.,12.0
1979-07-05 19:01:15.820 ,2,0,0.,12.0,0.,12.0,0.,12.0,0.,12.0
1979-07-05 19:01:27.820 ,2,0,0.,12.0,0.,12.0,0.,12.0,0.,12.0
1979-07-05 19:01:39.820 ,3,1,0.,12.0,0.,12.0,0.,12.0,0.,12.0
1979-07-05 19:01:51.820 ,3,1,0.,12.0,0.,12.0,0.,12.0,0.,12.0
1979-07-05 19:02:03.820 ,3,0,0.,12.0,0.,12.0,0.,12.0,0.,12.0
1979-07-05 19:02:15.820 ,3,0,0.,12.0,0.,12.0,0.,12.0,0.,12.0
1979-07-05 19:02:27.820 ,4,1,0.,12.0,0.,12.0,0.,12.0,0.,12.0
1979-07-05 19:02:39.820 ,4,1,0.,12.0,0.,12.0,0.,12.0,0.,12.0
1979-07-05 19:02:51.820 ,4,0,0.,12.0,0.,12.0,0.,12.0,0.,12.0
1979-07-05 19:03:03.820 ,4,0,0.,12.0,0.,12.0,0.,12.0,0.,12.0
1979-07-05 19:03:15.820 ,5,1,0.,12.0,0.,12.0,0.,12.0,0.,12.0
1979-07-05 19:03:27.820 ,5,1,0.,12.0,0.,12.0,0.,12.0,0.,12.0
1979-07-05 19:03:39.820 ,5,0,0.,12.0,0.,12.0,0.,12.0,0.,12.0
1979-07-05 19:03:51.820 ,5,0,0.,12.0,0.,12.0,0.,12.0,0.,12.0
1979-07-05 19:04:03.820 ,6,1,0.,12.0,0.,12.0,0.,12.0,0.,12.0
1979-07-05 19:04:15.820 ,6,1,0.,12.0,0.,12.0,0.,12.0,0.,12.0
1979-07-05 19:04:27.820 ,6,0,0.,12.0,0.,12.0,0.,12.0,0.,12.0
1979-07-05 19:04:39.820 ,6,0,0.,12.0,0.,12.0,0.,12.0,0.,12.0
1979-07-05 19:04:51.820 ,7,1,0.,12.0,0.,12.0,0.,12.0,0.,12.0
1979-07-05 19:05:03.820 ,7,1,0.,12.0,0.,12.0,0.,12.0,0.,12.0
1979-07-05 19:05:15.820 ,7,0,0.,12.0,0.,12.0,0.,12.0,0.,12.0
1979-07-05 19:05:27.820 ,7,0,0.,12.0,0.,12.0,0.,12.0,0.,12.0
1979-07-05 19:05:39.820 ,7,1,0.,12.0,0.,12.0,0.,12.0,0.,12.0
1979-07-05 19:05:51.820 ,7,1,0.,12.0,0.,12.0,0.,12.0,0.,12.0
1979-07-05 19:06:03.820 ,7,0,0.,12.0,0.,12.0,0.,12.0,0.,12.0
1979-07-05 19:06:15.820 ,7,0,0.,12.0,0.,12.0,0.,12.0,0.,12.0
1979-07-05 19:06:27.820 ,6,1,0.,12.0,0.,12.0,0.,12.0,0.,12.0
1979-07-05 19:06:39.820 ,6,1,0.,12.0,0.,12.0,0.,12.0,0.,12.0
1979-07-05 19:06:51.820 ,6,0,0.,12.0,0.,12.0,0.,12.0,0.,12.0
1979-07-05 19:07:03.820 ,6,0,0.,12.0,0.,12.0,0.,12.0,0.,12.0
1979-07-05 19:07:15.820 ,5,1,0.,12.0,0.,12.0,0.,12.0,0.,12.0
1979-07-05 19:07:27.820 ,5,1,0.,12.0,0.,12.0,0.,12.0,0.,12.0
1979-07-05 19:07:39.820 ,5,0,0.,12.0,0.,12.0,0.,12.0,0.,12.0
1979-07-05 19:07:51.820 ,5,0,0.,12.0,0.,12.0,0.,12.0,0.,12.0
1979-07-05 19:08:03.820 ,4,1,0.,12.0,0.,12.0,0.,12.0,0.,12.0
1979-07-05 19:08:15.820 ,4,1,0.,12.0,0.,12.0,0.,12.0,0.,12.0
1979-07-05 19:08:27.820 ,4,0,0.,12.0,0.,12.0,0.,12.0,0.,12.0
1979-07-05 19:08:39.820 ,4,0,0.,12.0,0.,12.0,0.,12.0,1.,12.0
1979-07-05 19:10:27.820 ,0,0,0.,12.0,0.,12.0,0.,12.0,0.,12.0
1979-07-05 19:10:39.820 ,0,0,0.,12.0,0.,12.0,0.,12.0,0.,12.0
1979-07-05 19:10:51.820 ,0,0,0.,12.0,0.,12.0,0.,12.0,0.,12.0
1979-07-05 19:11:03.820 ,0,0,0.,12.0,0.,12.0,0.,12.0,0.,12.0
1979-07-05 19:11:15.820 ,0,1,0.,12.0,0.,12.0,0.,12.0,0.,12.0
1979-07-05 19:11:27.820 ,0,1,0.,12.0,0.,12.0,0.,12.0,0.,12.0
1979-07-05 19:11:39.820 ,0,0,0.,12.0,0.,12.0,0.,12.0,0.,12.0
1979-07-05 19:11:51.820 ,0,0,0.,12.0,0.,12.0,0.,12.0,0.,12.0
1979-07-05 19:12:03.820 ,0,1,0.,12.0,0.,12.0,0.,12.0,0.,12.0
1979-07-05 19:12:15.820 ,0,1,0.,12.0,0.,12.0,0.,12.0,0.,12.0
1979-07-05 19:12:27.820 ,0,0,0.,12.0,0.,12.0,0.,12.0,0.,12.0
1979-07-05 19:12:39.820 ,0,0,0.,12.0,0.,12.0,0.,12.0,0.,12.0
1979-07-05 19:12:51.820 ,1,1,1.,12.0,0.,12.0,0.,12.0,0.,12.0
1979-07-05 19:13:03.820 ,1,1,0.,12.0,0.,12.0,0.,12.0,0.,12.0
1979-07-05 19:13:15.820 ,1,0,0.,12.0,0.,12.0,0.,12.0,0.,12.0
1979-07-05 19:13:27.820 ,1,0,0.,12.0,0.,12.0,0.,12.0,0.,12.0
1979-07-05 19:13:39.820 ,2,1,0.,12.0,0.,12.0,0.,12.0,0.,12.0
1979-07-05 19:13:51.820 ,2,1,0.,12.0,0.,12.0,0.,12.0,0.,12.0
1979-07-05 19:14:03.820 ,2,0,0.,12.0,0.,12.0,0.,12.0,0.,12.0
1979-07-05 19:14:15.820 ,2,0,0.,12.0,0.,12.0,0.,12.0,0.,12.0
1979-07-05 19:14:27.820 ,3,1,0.,12.0,0.,12.0,0.,12.0,0.,12.0
1979-07-05 19:14:39.820 ,3,1,1.,12.0,0.,12.0,0.,12.0,0.,12.0
1979-07-05 19:14:51.820 ,3,0,0.,12.0,0.,12.0,0.,12.0,0.,12.0
1979-07-05 19:15:03.820 ,3,0,0.,12.0,0.,12.0,0.,12.0,1.,12.0
1979-07-05 19:15:15.820 ,4,1,0.,12.0,0.,12.0,0.,12.0,0.,12.0
1979-07-05 19:15:27.820 ,4,1,0.,12.0,0.,12.0,0.,12.0,0.,12.0
1979-07-05 19:15:39.820 ,4,0,0.,12.0,0.,12.0,0.,12.0,0.,12.0
1979-07-05 19:15:51.820 ,4,0,0.,12.0,0.,12.0,0.,12.0,0.,12.0
1979-07-05 19:16:03.820 ,5,1,1.,12.0,0.,12.0,0.,12.0,1.,12.0
1979-07-05 19:16:15.820 ,5,1,0.,12.0,0.,12.0,0.,12.0,0.,12.0
1979-07-05 19:16:27.820 ,5,0,0.,12.0,0.,12.0,0.,12.0,0.,12.0
1979-07-05 19:16:39.820 ,5,0,0.,12.0,0.,12.0,0.,12.0,0.,12.0
1979-07-05 19:16:51.820 ,6,1,1.,12.0,0.,12.0,0.,12.0,0.,12.0
1979-07-05 19:17:03.820 ,6,1,0.,12.0,0.,12.0,0.,12.0,0.,12.0
1979-07-05 19:17:15.820 ,6,0,0.,12.0,0.,12.0,0.,12.0,1.,12.0
1979-07-05 19:17:27.820 ,6,0,0.,12.0,0.,12.0,0.,12.0,0.,12.0
1979-07-05 19:17:39.820 ,7,1,0.,12.0,0.,12.0,0.,12.0,0.,12.0
1979-07-05 19:17:51.820 ,7,1,0.,12.0,0.,12.0,0.,12.0,0.,12.0
1979-07-05 19:18:03.820 ,7,0,0.,12.0,0.,12.0,0.,12.0,0.,12.0
1979-07-05 19:18:15.820 ,7,0,0.,12.0,0.,12.0,0.,12.0,0.,12.0
1979-07-05 19:18:27.820 ,7,1,0.,12.0,0.,12.0,0.,12.0,0.,12.0
1979-07-05 19:18:39.820 ,7,1,0.,12.0,0.,12.0,0.,12.0,0.,12.0
1979-07-05 19:18:51.820 ,7,0,0.,12.0,0.,12.0,0.,12.0,0.,12.0
1979-07-05 19:19:03.820 ,7,0,0.,12.0,0.,12.0,0.,12.0,0.,12.0